Atlanta, GA

10:10 PM EST on February 07, 2016 (GMT -0500)
Chastain | | Change Station
CLOSE
Current Station
Personal Weather Station
Location: Atlanta, GA
Elevation: 905 ft
Nearby Weather Stations

Elev 905 ft 33.87 °N, 84.40 °W | Updated 6 seconds ago

Clear
Clear
41.7 °F
Feels Like 42 °F
N
0.0
Wind Variable Wind from NNW
Gusts 0.0 mph

Today
High -- | Low -- °F
--% Chance of Precip.
Yesterday
High -- | Low -- °F
Precip. -- in
Pressure 30.00 in
Visibility 10.0 miles
Clouds Clear
Windchill 42 °F
Dew Point 22 °F
Humidity 46%
Rainfall 0.00 in
Snow Depth Not available.
7:30 AM 6:13 PM
Waning Crescent, 0% visible
METAR KPDK 080253Z 28005KT 10SM CLR 06/M05 A2998 RMK AO2 SLP159 T00611050 56003
Pressure 30.00 in
Visibility 10.0 miles
Clouds Clear
Windchill 42 °F
Dew Point 22 °F
Humidity 46%
Rainfall 0.00 in
Snow Depth Not available.
7:30 AM 6:13 PM
Waning Crescent, 0% visible
METAR KPDK 080253Z 28005KT 10SM CLR 06/M05 A2998 RMK AO2 SLP159 T00611050 56003

10-Day Weather Forecast

Almanac

Astronomy

Feb. 07, 2016 Rise Set
Actual Time
Civil Twilight
Nautical Twilight
Astronomical Twilight
Moon
Length of Visible Light
Length of Day
Tomorrow will be .
, % of the Moon is Illuminated

Today's Extremes

State Highs State Lows

Community

WunderPhotos

Upload Photos

1,891,373 photos uploaded!

WunderBlog® & News

Nearby

Air Quality

  Air Quality AQ Index Pollutant
Not available.

Snow Depth

Station Depth Elevation

Earthquake Activity

City Distance Mag. Time & Date
Minimum magnitude displayed is 2.5.

Coastal Water Temperatures

Place Temperature

Stations

Nearby Weather Stations

Station Location Temp. Windchill Dew Point Humidity Wind Precip. Elev Updated Type
                   

Watches & Warnings

There are currently no watches in effect.